1596060033,2020-07-30 00:00,496.00,-31
1596060093,2020-07-30 00:01,495.00,-29
1596060153,2020-07-30 00:02,497.00,-30
1596060213,2020-07-30 00:03,497.00,-31
1596060273,2020-07-30 00:04,498.00,-35
1596060333,2020-07-30 00:05,494.00,-29
1596060393,2020-07-30 00:06,492.00,-27
1596060454,2020-07-30 00:07,492.00,-31
1596060514,2020-07-30 00:08,492.00,-30
1596060574,2020-07-30 00:09,493.00,-30
1596060634,2020-07-30 00:10,500.00,-28
1596060694,2020-07-30 00:11,496.00,-31
1596060754,2020-07-30 00:12,497.00,-33
1596060814,2020-07-30 00:13,499.00,-29
1596060874,2020-07-30 00:14,503.00,-29
1596060934,2020-07-30 00:15,499.00,-30
1596060994,2020-07-30 00:16,500.00,-28
1596061054,2020-07-30 00:17,497.00,-28
1596061114,2020-07-30 00:18,492.00,-31
1596061174,2020-07-30 00:19,489.00,-31
1596061234,2020-07-30 00:20,489.00,-32
1596061294,2020-07-30 00:21,484.00,-29
1596061354,2020-07-30 00:22,480.00,-32
1596061415,2020-07-30 00:23,481.00,-29
1596061475,2020-07-30 00:24,479.00,-29
1596061535,2020-07-30 00:25,483.00,-32
1596061595,2020-07-30 00:26,483.00,-29
1596061655,2020-07-30 00:27,489.00,-34
1596061715,2020-07-30 00:28,490.00,-30
1596061775,2020-07-30 00:29,496.00,-28
1596061835,2020-07-30 00:30,497.00,-30
1596061895,2020-07-30 00:31,497.00,-30
1596061955,2020-07-30 00:32,500.00,-29
1596062015,2020-07-30 00:33,497.00,-29
1596062075,2020-07-30 00:34,501.00,-28
1596062136,2020-07-30 00:35,502.00,-27
1596062196,2020-07-30 00:36,498.00,-31
1596062256,2020-07-30 00:37,498.00,-31
1596062316,2020-07-30 00:38,496.00,-32
1596062376,2020-07-30 00:39,496.00,-32
1596062436,2020-07-30 00:40,500.00,-28
1596062496,2020-07-30 00:41,501.00,-33
1596062556,2020-07-30 00:42,499.00,-32
1596062617,2020-07-30 00:43,493.00,-32
1596062677,2020-07-30 00:44,482.00,-31
1596062737,2020-07-30 00:45,478.00,-29
1596062797,2020-07-30 00:46,476.00,-32
1596062857,2020-07-30 00:47,477.00,-30
1596062917,2020-07-30 00:48,478.00,-32
1596062977,2020-07-30 00:49,477.00,-31
1596063037,2020-07-30 00:50,479.00,-30
1596063097,2020-07-30 00:51,479.00,-31
1596063157,2020-07-30 00:52,475.00,-30
1596063218,2020-07-30 00:53,478.00,-32
1596063278,2020-07-30 00:54,483.00,-31
1596063338,2020-07-30 00:55,486.00,-29
1596063398,2020-07-30 00:56,489.00,-30
1596063458,2020-07-30 00:57,496.00,-27
1596063518,2020-07-30 00:58,502.00,-32
1596063578,2020-07-30 00:59,504.00,-30
1596063638,2020-07-30 01:00,501.00,-30
1596063698,2020-07-30 01:01,502.00,-33
1596063758,2020-07-30 01:02,504.00,-29
1596063818,2020-07-30 01:03,505.00,-31
1596063878,2020-07-30 01:04,505.00,-30
1596063938,2020-07-30 01:05,506.00,-29
1596063998,2020-07-30 01:06,508.00,-32
1596064058,2020-07-30 01:07,510.00,-30
1596064118,2020-07-30 01:08,509.00,-33
1596064178,2020-07-30 01:09,507.00,-33
1596064239,2020-07-30 01:10,504.00,-33
1596064299,2020-07-30 01:11,502.00,-33
1596064359,2020-07-30 01:12,502.00,-29
1596064419,2020-07-30 01:13,499.00,-30
1596064479,2020-07-30 01:14,500.00,-30
1596064539,2020-07-30 01:15,498.00,-31
1596064599,2020-07-30 01:16,502.00,-31
1596064659,2020-07-30 01:17,500.00,-35
1596064719,2020-07-30 01:18,502.00,-32
1596064779,2020-07-30 01:19,501.00,-27
1596064839,2020-07-30 01:20,499.00,-33
1596064899,2020-07-30 01:21,502.00,-32
1596064959,2020-07-30 01:22,501.00,-27
1596065020,2020-07-30 01:23,500.00,-36
1596065080,2020-07-30 01:24,496.00,-32
1596065140,2020-07-30 01:25,496.00,-28
1596065200,2020-07-30 01:26,497.00,-29
1596065260,2020-07-30 01:27,502.00,-30
1596065320,2020-07-30 01:28,502.00,-31
1596065380,2020-07-30 01:29,505.00,-30
1596065440,2020-07-30 01:30,506.00,-32
1596065500,2020-07-30 01:31,507.00,-34
1596065560,2020-07-30 01:32,505.00,-30
1596065620,2020-07-30 01:33,505.00,-30
1596065680,2020-07-30 01:34,505.00,-29
1596065740,2020-07-30 01:35,506.00,-29
1596065800,2020-07-30 01:36,505.00,-33
1596065860,2020-07-30 01:37,504.00,-29
1596065920,2020-07-30 01:38,504.00,-31
1596065980,2020-07-30 01:39,500.00,-31
1596066040,2020-07-30 01:40,501.00,-31
1596066101,2020-07-30 01:41,499.00,-30
1596066161,2020-07-30 01:42,497.00,-33
1596066221,2020-07-30 01:43,502.00,-29
1596066281,2020-07-30 01:44,500.00,-32
1596066341,2020-07-30 01:45,500.00,-30
1596066401,2020-07-30 01:46,498.00,-34
1596066461,2020-07-30 01:47,497.00,-36
1596066521,2020-07-30 01:48,497.00,-30
1596066581,2020-07-30 01:49,494.00,-33
1596066641,2020-07-30 01:50,492.00,-29
1596066701,2020-07-30 01:51,491.00,-33
1596066761,2020-07-30 01:52,485.00,-29
1596066821,2020-07-30 01:53,486.00,-33
1596066881,2020-07-30 01:54,486.00,-29
1596066941,2020-07-30 01:55,484.00,-33
1596067001,2020-07-30 01:56,482.00,-27
1596067061,2020-07-30 01:57,480.00,-29
1596067121,2020-07-30 01:58,479.00,-29
1596067182,2020-07-30 01:59,478.00,-31
1596067242,2020-07-30 02:00,480.00,-32
1596067302,2020-07-30 02:01,487.00,-32
1596067362,2020-07-30 02:02,495.00,-34
1596067422,2020-07-30 02:03,498.00,-31
1596067482,2020-07-30 02:04,503.00,-35
1596067542,2020-07-30 02:05,501.00,-30
1596067602,2020-07-30 02:06,503.00,-31
1596067662,2020-07-30 02:07,504.00,-29
1596067722,2020-07-30 02:08,508.00,-27
1596067782,2020-07-30 02:09,509.00,-30
1596067842,2020-07-30 02:10,507.00,-30
1596067902,2020-07-30 02:11,506.00,-32
1596067963,2020-07-30 02:12,509.00,-32
1596068023,2020-07-30 02:13,505.00,-29
1596068083,2020-07-30 02:14,503.00,-32
1596068143,2020-07-30 02:15,507.00,-29
1596068203,2020-07-30 02:16,508.00,-28
1596068263,2020-07-30 02:17,509.00,-29
1596068323,2020-07-30 02:18,510.00,-35
1596068383,2020-07-30 02:19,512.00,-34
1596068443,2020-07-30 02:20,511.00,-33
1596068503,2020-07-30 02:21,504.00,-30
1596068563,2020-07-30 02:22,504.00,-29
1596068623,2020-07-30 02:23,502.00,-30
1596068683,2020-07-30 02:24,502.00,-33
1596068743,2020-07-30 02:25,503.00,-34
1596068803,2020-07-30 02:26,501.00,-29
1596068863,2020-07-30 02:27,501.00,-28
1596068923,2020-07-30 02:28,497.00,-33
1596068984,2020-07-30 02:29,496.00,-27
1596069044,2020-07-30 02:30,494.00,-28
1596069104,2020-07-30 02:31,496.00,-30
1596069164,2020-07-30 02:32,491.00,-31
1596069224,2020-07-30 02:33,489.00,-28
1596069284,2020-07-30 02:34,484.00,-29
1596069344,2020-07-30 02:35,484.00,-32
1596069404,2020-07-30 02:36,488.00,-35
1596069464,2020-07-30 02:37,493.00,-32
1596069524,2020-07-30 02:38,500.00,-27
1596069584,2020-07-30 02:39,504.00,-32
1596069644,2020-07-30 02:40,504.00,-30
1596069704,2020-07-30 02:41,506.00,-28
1596069764,2020-07-30 02:42,507.00,-32
1596069824,2020-07-30 02:43,509.00,-30
1596069884,2020-07-30 02:44,508.00,-30
1596069944,2020-07-30 02:45,504.00,-30
1596070004,2020-07-30 02:46,502.00,-35
1596070064,2020-07-30 02:47,498.00,-27
1596070125,2020-07-30 02:48,498.00,-31
1596070185,2020-07-30 02:49,498.00,-30
1596070245,2020-07-30 02:50,495.00,-31
1596070305,2020-07-30 02:51,489.00,-33
1596070365,2020-07-30 02:52,486.00,-33
1596070425,2020-07-30 02:53,487.00,-29
1596070485,2020-07-30 02:54,480.00,-29
1596070545,2020-07-30 02:55,471.00,-30
1596070605,2020-07-30 02:56,467.00,-30
1596070665,2020-07-30 02:57,463.00,-29
1596070725,2020-07-30 02:58,454.00,-29
1596070785,2020-07-30 02:59,461.00,-33
1596070845,2020-07-30 03:00,456.00,-33
1596070905,2020-07-30 03:01,468.00,-34
1596070965,2020-07-30 03:02,475.00,-32
1596071025,2020-07-30 03:03,470.00,-27
1596071085,2020-07-30 03:04,477.00,-34
1596071145,2020-07-30 03:05,475.00,-31
1596071206,2020-07-30 03:06,477.00,-30
1596071266,2020-07-30 03:07,478.00,-32
1596071326,2020-07-30 03:08,477.00,-32
1596071386,2020-07-30 03:09,463.00,-27
1596071446,2020-07-30 03:10,461.00,-28
1596071506,2020-07-30 03:11,459.00,-33
1596071566,2020-07-30 03:12,454.00,-27
1596071626,2020-07-30 03:13,452.00,-31
1596071686,2020-07-30 03:14,453.00,-34
1596071746,2020-07-30 03:15,451.00,-28
1596071806,2020-07-30 03:16,454.00,-28
1596071866,2020-07-30 03:17,444.00,-29
1596071926,2020-07-30 03:18,445.00,-31
1596071986,2020-07-30 03:19,448.00,-33
1596072046,2020-07-30 03:20,451.00,-30
1596072106,2020-07-30 03:21,455.00,-29
1596072166,2020-07-30 03:22,461.00,-30
1596072226,2020-07-30 03:23,470.00,-29
1596072287,2020-07-30 03:24,466.00,-31
1596072347,2020-07-30 03:25,465.00,-30
1596072407,2020-07-30 03:26,458.00,-31
1596072467,2020-07-30 03:27,468.00,-29
1596072527,2020-07-30 03:28,463.00,-30
1596072587,2020-07-30 03:29,466.00,-29
1596072647,2020-07-30 03:30,465.00,-30
1596072707,2020-07-30 03:31,472.00,-33
1596072767,2020-07-30 03:32,472.00,-31
1596072827,2020-07-30 03:33,475.00,-33
1596072887,2020-07-30 03:34,472.00,-33
1596072947,2020-07-30 03:35,470.00,-30
1596073008,2020-07-30 03:36,470.00,-31
1596073068,2020-07-30 03:37,473.00,-30
1596073128,2020-07-30 03:38,475.00,-28
1596073188,2020-07-30 03:39,481.00,-27
1596073248,2020-07-30 03:40,470.00,-34
1596073308,2020-07-30 03:41,467.00,-32
1596073368,2020-07-30 03:42,467.00,-33
1596073428,2020-07-30 03:43,465.00,-31
1596073488,2020-07-30 03:44,463.00,-31
1596073548,2020-07-30 03:45,469.00,-29
1596073608,2020-07-30 03:46,469.00,-31
1596073668,2020-07-30 03:47,456.00,-35
1596073728,2020-07-30 03:48,465.00,-29
1596073788,2020-07-30 03:49,464.00,-31
1596073848,2020-07-30 03:50,473.00,-33
1596073908,2020-07-30 03:51,457.00,-31
1596073969,2020-07-30 03:52,456.00,-27
1596074029,2020-07-30 03:53,457.00,-28
1596074089,2020-07-30 03:54,462.00,-32
1596074149,2020-07-30 03:55,464.00,-33
1596074209,2020-07-30 03:56,468.00,-29
1596074269,2020-07-30 03:57,476.00,-27
1596074329,2020-07-30 03:58,482.00,-30
1596074389,2020-07-30 03:59,474.00,-32
1596074449,2020-07-30 04:00,459.00,-28
1596074509,2020-07-30 04:01,469.00,-30
1596074569,2020-07-30 04:02,466.00,-30
1596074629,2020-07-30 04:03,471.00,-28
1596074689,2020-07-30 04:04,467.00,-28
1596074749,2020-07-30 04:05,457.00,-31
1596074809,2020-07-30 04:06,462.00,-34
1596074869,2020-07-30 04:07,467.00,-30
1596074929,2020-07-30 04:08,470.00,-33
1596074989,2020-07-30 04:09,479.00,-31
1596075049,2020-07-30 04:10,491.00,-28
1596075109,2020-07-30 04:11,483.00,-29
1596075169,2020-07-30 04:12,478.00,-30
1596075229,2020-07-30 04:13,483.00,-31
1596075289,2020-07-30 04:14,492.00,-33
1596075349,2020-07-30 04:15,492.00,-31
1596075409,2020-07-30 04:16,494.00,-28
1596075469,2020-07-30 04:17,497.00,-30
1596075530,2020-07-30 04:18,502.00,-28
1596075590,2020-07-30 04:19,500.00,-29
1596075650,2020-07-30 04:20,501.00,-29
1596075710,2020-07-30 04:21,501.00,-30
1596075770,2020-07-30 04:22,501.00,-29
1596075830,2020-07-30 04:23,492.00,-30
1596075890,2020-07-30 04:24,490.00,-30
1596075950,2020-07-30 04:25,484.00,-27
1596076010,2020-07-30 04:26,486.00,-29
1596076070,2020-07-30 04:27,486.00,-30
1596076130,2020-07-30 04:28,490.00,-29
1596076190,2020-07-30 04:29,495.00,-31
1596076250,2020-07-30 04:30,492.00,-31
1596076310,2020-07-30 04:31,492.00,-29
1596076370,2020-07-30 04:32,491.00,-28
1596076430,2020-07-30 04:33,488.00,-31
1596076490,2020-07-30 04:34,488.00,-32
1596076550,2020-07-30 04:35,489.00,-27
1596076610,2020-07-30 04:36,494.00,-27
1596076670,2020-07-30 04:37,493.00,-30
1596076730,2020-07-30 04:38,495.00,-27
1596076790,2020-07-30 04:39,494.00,-29
1596076850,2020-07-30 04:40,490.00,-27
1596076910,2020-07-30 04:41,499.00,-34
1596076971,2020-07-30 04:42,508.00,-30
1596077031,2020-07-30 04:43,506.00,-27
1596077091,2020-07-30 04:44,506.00,-33
1596077151,2020-07-30 04:45,507.00,-31
1596077211,2020-07-30 04:46,506.00,-31
1596077271,2020-07-30 04:47,503.00,-30
1596077331,2020-07-30 04:48,504.00,-30
1596077391,2020-07-30 04:49,501.00,-26
1596077451,2020-07-30 04:50,501.00,-29
1596077511,2020-07-30 04:51,500.00,-31
1596077571,2020-07-30 04:52,502.00,-29
1596077631,2020-07-30 04:53,503.00,-31
1596077691,2020-07-30 04:54,503.00,-28
1596077751,2020-07-30 04:55,504.00,-27
1596077811,2020-07-30 04:56,503.00,-34
1596077871,2020-07-30 04:57,505.00,-33
1596077931,2020-07-30 04:58,504.00,-29
1596077991,2020-07-30 04:59,503.00,-30
1596078051,2020-07-30 05:00,502.00,-31
1596078111,2020-07-30 05:01,501.00,-33
1596078171,2020-07-30 05:02,499.00,-33
1596078231,2020-07-30 05:03,497.00,-32
1596078292,2020-07-30 05:04,498.00,-28
1596078352,2020-07-30 05:05,497.00,-28
1596078412,2020-07-30 05:06,497.00,-29
1596078472,2020-07-30 05:07,497.00,-29
1596078532,2020-07-30 05:08,496.00,-33
1596078592,2020-07-30 05:09,496.00,-32
1596078652,2020-07-30 05:10,493.00,-26
1596078712,2020-07-30 05:11,494.00,-28
1596078772,2020-07-30 05:12,496.00,-28
1596078832,2020-07-30 05:13,495.00,-32
1596078892,2020-07-30 05:14,496.00,-32
1596078952,2020-07-30 05:15,491.00,-31
1596079012,2020-07-30 05:16,493.00,-30
1596079073,2020-07-30 05:17,495.00,-30
1596079133,2020-07-30 05:18,495.00,-28
1596079193,2020-07-30 05:19,493.00,-27
1596079253,2020-07-30 05:20,497.00,-29
1596079313,2020-07-30 05:21,495.00,-30
1596079373,2020-07-30 05:22,496.00,-30
1596079433,2020-07-30 05:23,495.00,-31
1596079493,2020-07-30 05:24,493.00,-29
1596079553,2020-07-30 05:25,492.00,-31
1596079613,2020-07-30 05:26,492.00,-32
1596079673,2020-07-30 05:27,492.00,-29
1596079733,2020-07-30 05:28,491.00,-27
1596079793,2020-07-30 05:29,491.00,-31
1596079854,2020-07-30 05:30,493.00,-30
1596079914,2020-07-30 05:31,491.00,-32
1596079974,2020-07-30 05:32,490.00,-28
1596080034,2020-07-30 05:33,490.00,-31
1596080094,2020-07-30 05:34,491.00,-31
1596080154,2020-07-30 05:35,491.00,-27
1596080214,2020-07-30 05:36,492.00,-32
1596080274,2020-07-30 05:37,492.00,-28
1596080334,2020-07-30 05:38,491.00,-30
1596080394,2020-07-30 05:39,488.00,-33
1596080454,2020-07-30 05:40,489.00,-33
1596080514,2020-07-30 05:41,489.00,-28
1596080574,2020-07-30 05:42,490.00,-26
1596080634,2020-07-30 05:43,494.00,-31
1596080694,2020-07-30 05:44,494.00,-29
1596080754,2020-07-30 05:45,495.00,-30
1596080814,2020-07-30 05:46,494.00,-34
1596080874,2020-07-30 05:47,493.00,-30
1596080935,2020-07-30 05:48,492.00,-36
1596080995,2020-07-30 05:49,493.00,-29
1596081055,2020-07-30 05:50,494.00,-27
1596081115,2020-07-30 05:51,495.00,-31
1596081175,2020-07-30 05:52,493.00,-32
1596081235,2020-07-30 05:53,488.00,-33
1596081295,2020-07-30 05:54,488.00,-29
1596081355,2020-07-30 05:55,485.00,-27
1596081415,2020-07-30 05:56,483.00,-34
1596081475,2020-07-30 05:57,480.00,-32
1596081535,2020-07-30 05:58,480.00,-33
1596081595,2020-07-30 05:59,480.00,-32
1596081655,2020-07-30 06:00,486.00,-28
1596081715,2020-07-30 06:01,487.00,-29
1596081775,2020-07-30 06:02,489.00,-30
1596081836,2020-07-30 06:03,486.00,-27
1596081896,2020-07-30 06:04,485.00,-30
1596081956,2020-07-30 06:05,483.00,-32
1596082016,2020-07-30 06:06,479.00,-29
1596082076,2020-07-30 06:07,481.00,-29
1596082136,2020-07-30 06:08,481.00,-27
1596082196,2020-07-30 06:09,484.00,-35
1596082256,2020-07-30 06:10,480.00,-28
1596082316,2020-07-30 06:11,475.00,-32
1596082376,2020-07-30 06:12,478.00,-30
1596082436,2020-07-30 06:13,480.00,-32
1596082496,2020-07-30 06:14,480.00,-30
1596082556,2020-07-30 06:15,478.00,-31
1596082616,2020-07-30 06:16,477.00,-32
1596082676,2020-07-30 06:17,480.00,-31
1596082736,2020-07-30 06:18,481.00,-28
1596082796,2020-07-30 06:19,479.00,-28
1596082857,2020-07-30 06:20,476.00,-32
1596082917,2020-07-30 06:21,479.00,-31
1596082977,2020-07-30 06:22,478.00,-29
1596083037,2020-07-30 06:23,475.00,-34
1596083097,2020-07-30 06:24,474.00,-31
1596083157,2020-07-30 06:25,476.00,-29
1596083217,2020-07-30 06:26,474.00,-32
1596083277,2020-07-30 06:27,469.00,-29
1596083337,2020-07-30 06:28,468.00,-28
1596083397,2020-07-30 06:29,469.00,-28
1596083457,2020-07-30 06:30,471.00,-29
1596083517,2020-07-30 06:31,469.00,-31
1596083577,2020-07-30 06:32,468.00,-29
1596083637,2020-07-30 06:33,469.00,-36
1596083697,2020-07-30 06:34,469.00,-32
1596083758,2020-07-30 06:35,468.00,-35
1596083818,2020-07-30 06:36,466.00,-31
1596083878,2020-07-30 06:37,466.00,-27
1596083938,2020-07-30 06:38,464.00,-33
1596083998,2020-07-30 06:39,463.00,-33
1596084058,2020-07-30 06:40,466.00,-32
1596084118,2020-07-30 06:41,470.00,-31
1596084178,2020-07-30 06:42,469.00,-29
1596084238,2020-07-30 06:43,470.00,-28
1596084298,2020-07-30 06:44,467.00,-29
1596084358,2020-07-30 06:45,465.00,-32
1596084418,2020-07-30 06:46,464.00,-28
1596084479,2020-07-30 06:47,463.00,-29
1596084539,2020-07-30 06:48,461.00,-28
1596084599,2020-07-30 06:49,464.00,-29
1596084659,2020-07-30 06:50,461.00,-28
1596084719,2020-07-30 06:51,465.00,-33
1596084779,2020-07-30 06:52,458.00,-33
1596084839,2020-07-30 06:53,459.00,-30
1596084899,2020-07-30 06:54,458.00,-33
1596084959,2020-07-30 06:55,455.00,-33
1596085019,2020-07-30 06:56,453.00,-30
1596085079,2020-07-30 06:57,455.00,-29
1596085139,2020-07-30 06:58,453.00,-30
1596085200,2020-07-30 07:00,452.00,-29
1596085260,2020-07-30 07:01,451.00,-33
1596085320,2020-07-30 07:02,450.00,-35
1596085380,2020-07-30 07:03,449.00,-32
1596085440,2020-07-30 07:04,449.00,-35
1596085500,2020-07-30 07:05,452.00,-34
1596085560,2020-07-30 07:06,447.00,-31
1596085620,2020-07-30 07:07,447.00,-31
1596085680,2020-07-30 07:08,447.00,-33
1596085740,2020-07-30 07:09,443.00,-35
1596085801,2020-07-30 07:10,442.00,-31
1596085861,2020-07-30 07:11,440.00,-32
1596085921,2020-07-30 07:12,439.00,-30
1596085981,2020-07-30 07:13,441.00,-26
1596086041,2020-07-30 07:14,439.00,-29
1596086101,2020-07-30 07:15,442.00,-33
1596086161,2020-07-30 07:16,439.00,-29
1596086221,2020-07-30 07:17,441.00,-29
1596086281,2020-07-30 07:18,444.00,-32
1596086341,2020-07-30 07:19,442.00,-31
1596086401,2020-07-30 07:20,442.00,-28
1596086461,2020-07-30 07:21,443.00,-29
1596086521,2020-07-30 07:22,448.00,-27
1596086581,2020-07-30 07:23,452.00,-31
1596086642,2020-07-30 07:24,456.00,-32
1596086702,2020-07-30 07:25,452.00,-32
1596086762,2020-07-30 07:26,458.00,-30
1596086822,2020-07-30 07:27,458.00,-28
1596086882,2020-07-30 07:28,462.00,-34
1596086942,2020-07-30 07:29,461.00,-31
1596087002,2020-07-30 07:30,456.00,-29
1596087062,2020-07-30 07:31,455.00,-33
1596087122,2020-07-30 07:32,458.00,-33
1596087182,2020-07-30 07:33,461.00,-35
1596087242,2020-07-30 07:34,460.00,-31
1596087302,2020-07-30 07:35,459.00,-32
1596087362,2020-07-30 07:36,458.00,-30
1596087422,2020-07-30 07:37,455.00,-30
1596087482,2020-07-30 07:38,454.00,-31
1596087543,2020-07-30 07:39,455.00,-32
1596087603,2020-07-30 07:40,451.00,-33
1596087663,2020-07-30 07:41,454.00,-27
1596087723,2020-07-30 07:42,453.00,-30
1596087783,2020-07-30 07:43,452.00,-30
1596087843,2020-07-30 07:44,455.00,-34
1596087903,2020-07-30 07:45,451.00,-34
1596087963,2020-07-30 07:46,452.00,-32
1596088023,2020-07-30 07:47,448.00,-32
1596088083,2020-07-30 07:48,448.00,-32
1596088143,2020-07-30 07:49,451.00,-36
1596088204,2020-07-30 07:50,452.00,-34
1596088264,2020-07-30 07:51,454.00,-31
1596088324,2020-07-30 07:52,451.00,-32
1596088384,2020-07-30 07:53,451.00,-31
1596088444,2020-07-30 07:54,450.00,-32
1596088504,2020-07-30 07:55,451.00,-33
1596088564,2020-07-30 07:56,452.00,-32
1596088624,2020-07-30 07:57,449.00,-33
1596088684,2020-07-30 07:58,450.00,-29
1596088747,2020-07-30 07:59,449.00,-31
1596088807,2020-07-30 08:00,451.00,-32
1596088867,2020-07-30 08:01,447.00,-29
1596088927,2020-07-30 08:02,447.00,-33
1596088987,2020-07-30 08:03,446.00,-32
1596089047,2020-07-30 08:04,447.00,-35
1596089108,2020-07-30 08:05,448.00,-33
1596089168,2020-07-30 08:06,447.00,-33
1596089228,2020-07-30 08:07,443.00,-34
1596089288,2020-07-30 08:08,444.00,-32
1596089348,2020-07-30 08:09,443.00,-34
1596089408,2020-07-30 08:10,442.00,-36
1596089468,2020-07-30 08:11,442.00,-33
1596089528,2020-07-30 08:12,443.00,-31
1596089588,2020-07-30 08:13,444.00,-30
1596089648,2020-07-30 08:14,442.00,-30
1596089709,2020-07-30 08:15,443.00,-29
1596089769,2020-07-30 08:16,444.00,-32
1596089829,2020-07-30 08:17,444.00,-30
1596089889,2020-07-30 08:18,439.00,-31
1596089949,2020-07-30 08:19,442.00,-29
1596090009,2020-07-30 08:20,444.00,-30
1596090069,2020-07-30 08:21,445.00,-29
1596090130,2020-07-30 08:22,442.00,-28
1596090190,2020-07-30 08:23,442.00,-28
1596090250,2020-07-30 08:24,442.00,-34
1596090310,2020-07-30 08:25,443.00,-27
1596090370,2020-07-30 08:26,446.00,-28
1596090430,2020-07-30 08:27,443.00,-33
1596090490,2020-07-30 08:28,443.00,-31
1596090550,2020-07-30 08:29,443.00,-30
1596090610,2020-07-30 08:30,443.00,-31
1596090670,2020-07-30 08:31,442.00,-33
1596090730,2020-07-30 08:32,445.00,-30
1596090791,2020-07-30 08:33,445.00,-32
1596090851,2020-07-30 08:34,442.00,-31
1596090911,2020-07-30 08:35,441.00,-31
1596090971,2020-07-30 08:36,444.00,-30
1596091031,2020-07-30 08:37,443.00,-33
1596091091,2020-07-30 08:38,443.00,-34
1596091151,2020-07-30 08:39,445.00,-29
1596091211,2020-07-30 08:40,441.00,-34
1596091271,2020-07-30 08:41,441.00,-34
1596091331,2020-07-30 08:42,442.00,-31
1596091392,2020-07-30 08:43,437.00,-30
1596091452,2020-07-30 08:44,437.00,-30
1596091512,2020-07-30 08:45,440.00,-39
1596091572,2020-07-30 08:46,439.00,-30
1596091633,2020-07-30 08:47,436.00,-31
1596091693,2020-07-30 08:48,437.00,-27
1596091753,2020-07-30 08:49,434.00,-32
1596091813,2020-07-30 08:50,437.00,-35
1596091873,2020-07-30 08:51,433.00,-30
1596091933,2020-07-30 08:52,437.00,-31
1596091993,2020-07-30 08:53,439.00,-32
1596092053,2020-07-30 08:54,439.00,-35
1596092113,2020-07-30 08:55,438.00,-28
1596092173,2020-07-30 08:56,439.00,-32
1596092234,2020-07-30 08:57,439.00,-37
1596092294,2020-07-30 08:58,441.00,-34
1596092354,2020-07-30 08:59,440.00,-36
1596092414,2020-07-30 09:00,440.00,-32
1596092474,2020-07-30 09:01,437.00,-32
1596092534,2020-07-30 09:02,440.00,-32
1596092594,2020-07-30 09:03,438.00,-33
1596092655,2020-07-30 09:04,441.00,-32
1596092715,2020-07-30 09:05,438.00,-33
1596092775,2020-07-30 09:06,440.00,-32
1596092835,2020-07-30 09:07,440.00,-30
1596092895,2020-07-30 09:08,440.00,-31
1596092955,2020-07-30 09:09,439.00,-30
1596093015,2020-07-30 09:10,440.00,-33
1596093075,2020-07-30 09:11,436.00,-37
1596093135,2020-07-30 09:12,437.00,-28
1596093195,2020-07-30 09:13,437.00,-37
1596093255,2020-07-30 09:14,434.00,-31
1596093316,2020-07-30 09:15,435.00,-31
1596093376,2020-07-30 09:16,431.00,-28
1596093436,2020-07-30 09:17,432.00,-32
1596093496,2020-07-30 09:18,435.00,-34
1596093556,2020-07-30 09:19,433.00,-33
1596093616,2020-07-30 09:20,433.00,-30
1596093676,2020-07-30 09:21,432.00,-36
1596093736,2020-07-30 09:22,433.00,-32
1596093796,2020-07-30 09:23,431.00,-28
1596093856,2020-07-30 09:24,434.00,-32
1596093916,2020-07-30 09:25,435.00,-33
1596093977,2020-07-30 09:26,433.00,-32
1596094037,2020-07-30 09:27,435.00,-32
1596094097,2020-07-30 09:28,433.00,-32
1596094157,2020-07-30 09:29,434.00,-34
1596094217,2020-07-30 09:30,430.00,-28
1596094277,2020-07-30 09:31,432.00,-30
1596094337,2020-07-30 09:32,433.00,-33
1596094397,2020-07-30 09:33,437.00,-32
1596094457,2020-07-30 09:34,432.00,-32
1596094517,2020-07-30 09:35,434.00,-34
1596094577,2020-07-30 09:36,433.00,-31
1596094637,2020-07-30 09:37,432.00,-32
1596094698,2020-07-30 09:38,430.00,-36
1596094758,2020-07-30 09:39,429.00,-33
1596094818,2020-07-30 09:40,427.00,-34
1596094878,2020-07-30 09:41,432.00,-30
1596094938,2020-07-30 09:42,429.00,-31
1596094998,2020-07-30 09:43,426.00,-31
1596095058,2020-07-30 09:44,427.00,-30
1596095118,2020-07-30 09:45,428.00,-31
1596095178,2020-07-30 09:46,424.00,-30
1596095238,2020-07-30 09:47,426.00,-33
1596095298,2020-07-30 09:48,429.00,-29
1596095358,2020-07-30 09:49,426.00,-30
1596095418,2020-07-30 09:50,431.00,-30
1596095478,2020-07-30 09:51,428.00,-32
1596095539,2020-07-30 09:52,425.00,-32
1596095599,2020-07-30 09:53,425.00,-30
1596095659,2020-07-30 09:54,424.00,-30
1596095719,2020-07-30 09:55,426.00,-31
1596095779,2020-07-30 09:56,428.00,-29
1596095839,2020-07-30 09:57,425.00,-33
1596095899,2020-07-30 09:58,423.00,-33
1596095959,2020-07-30 09:59,423.00,-34
1596096019,2020-07-30 10:00,423.00,-29
1596096079,2020-07-30 10:01,422.00,-34
1596096139,2020-07-30 10:02,421.00,-29
1596096199,2020-07-30 10:03,419.00,-35
1596096260,2020-07-30 10:04,422.00,-30
1596096320,2020-07-30 10:05,423.00,-34
1596096380,2020-07-30 10:06,422.00,-28
1596096440,2020-07-30 10:07,428.00,-28
1596096500,2020-07-30 10:08,426.00,-30
1596096560,2020-07-30 10:09,422.00,-30
1596096620,2020-07-30 10:10,423.00,-31
1596096680,2020-07-30 10:11,424.00,-30
1596096740,2020-07-30 10:12,418.00,-37
1596096800,2020-07-30 10:13,424.00,-28
1596096860,2020-07-30 10:14,426.00,-31
1596096920,2020-07-30 10:15,428.00,-33